User: anonymous   Login
Location: ?????????
(38.0736°N, 23.2119°E)
Time: 17:22:10
(UTC+00:00)
Language:

OAO 3 Rocket - Orbit

View from above orbital plane
View from above orbital plane
View from above satellite
View from above satellite

Ground track
Ground track

The orbit data is extracted from the following two-line orbital elements,

1 06155U 72065B   24172.92858784  .00001563  00000-0  23247-3 0  9990
2 06155  35.0040  11.1498 0034684 146.4766 213.8137 14.74519364748585
Epoch (UTC): 20 June 2024 22:17:09
Eccentricity: 0.0034684
inclination: 35.0040°
perigee height: 622 km
apogee height: 671 km
right ascension of ascending node: 11.1498°
argument of perigee: 146.4766°
revolutions per day: 14.74519364
mean anomaly at epoch: 213.8137°
orbit number at epoch: 74858

The dashed part of the orbit path shows where the satellite is in the earth's shadow,  

DLR